Regional Weather Roundup
Issued by NWS Upton, NY

Current Version | Previous Version | Text Only | Print | Product List | Glossary On
Versions: 1 2 3 4 5 6 7 8 9 10 11 12 13 14 15 16 17 18 19 20 21 22 23 24 25 26 27 28 29 30 31 32 33 34 35 36 37 38 39 40 41 42 43 44 45 46 47 48 49 50
000
ASUS41 KOKX 041505
RWROKX

REGIONAL WEATHER ROUNDUP
NATIONAL WEATHER SERVICE NEW YORK NY
1000 AM EST WED MAR 04 2015

NOTE: "FAIR" INDICATES FEW OR NO CLOUDS BELOW 12,000 FEET WITH NO
SIGNIFICANT WEATHER AND/OR OBSTRUCTIONS TO VISIBILITY.

NYZ071-072-176-178-NJZ106-104-041600-
NEW YORK CITY METRO AREA


CITY           SKY/WX    TMP DP  RH WIND       PRES   REMARKS
CENTRAL PARK   CLOUDY    42  36  79 W8        29.88S HAZE
LAGUARDIA APRT LGT RAIN  40  35  83 S10       29.86R WCI  33
KENNEDY INTL   LGT RAIN  36  33  89 SW14      29.89R FOG     WCI  27
NEWARK/LIBERTY LGT RAIN  37  35  92 SW8       29.88R FOG     WCI  31
BRNX BOT. GARD   N/A     41  36  81 SW8       29.88R
TETERBORO      LGT RAIN  39  35  86 SW7       29.86R FOG     WCI  34
$$

NYZ177-179-078>081-041600-
LONG ISLAND NEW YORK

CITY           SKY/WX    TMP DP  RH WIND       PRES   REMARKS
FARMINGDALE    CLOUDY    38  35  89 SW7       29.86F FOG     WCI  33
ISLIP          LGT RAIN  37  34  89 SW7       29.84S FOG     WCI  32
SHIRLEY        CLOUDY    37  35  92 SW7       29.86F FOG     WCI  32
WESTHAMPTON    CLOUDY    36  34  92 SW12      29.86R FOG     WCI  28
MONTAUK POINT    N/A     39  36  89 W8        29.84R WCI  33
$$

NYZ052-065-067-041600-
HUDSON VALLEY

CITY           SKY/WX    TMP DP  RH WIND       PRES   REMARKS
WHITE PLAINS   CLOUDY    38  36  92 W6        29.83R FOG     WCI  33
NEWBURGH       PTSUNNY   37  36  93 W9        29.84R WCI  31
MONTGOMERY     CLOUDY    38  34  85 SW7       29.82R WCI  33
POUGHKEEPSIE   CLOUDY    39  34  82 SW8       29.83R WCI  33
ALBANY         CLOUDY    37  27  67 NW6       29.83R WCI  32
$$

NJZ001-105-106-008-010-013-015-019>022-104-041600-
NEW JERSEY

CITY           SKY/WX    TMP DP  RH WIND       PRES   REMARKS
NEWARK/LIBERTY LGT RAIN  37  35  92 SW8       29.88R FOG     WCI  31
TETERBORO      LGT RAIN  39  35  86 SW7       29.86R FOG     WCI  34
CALDWELL       CLOUDY    38  35  89 VRB3      29.87R FOG
MORRISTOWN     CLOUDY    39  36  87 W7        29.87R FOG     WCI  34
SOMERVILLE     LGT RAIN  38  36  92 CALM      29.87R FOG
SUSSEX         CLOUDY    36  33  89 SW5       29.84R FOG     WCI  32
ANDOVER          N/A     35  34  96 VRB3      29.85R
TRENTON        LGT RAIN  37  35  92 SW5       29.89R FOG     WCI  33
MILLVILLE      CLOUDY    42  40  92 W12       29.92R
ATLANTIC CITY  CLOUDY    43  41  93 W5        29.91F FOG
WRIGHTSTOWN    CLOUDY    38  38  99 SW6       29.86F WCI  34
TOMS RIVER     CLOUDY    39  37  93 W3        29.90R
BELMAR         CLOUDY    37  32  81 W8        29.88S WCI  31
$$

PAZ047>061-062-071-041600-
EASTERN PENNSYLVANIA

CITY           SKY/WX    TMP DP  RH WIND       PRES   REMARKS
PHILADELPHIA   LGT RAIN  38  36  92 SW7       29.90F FOG     WCI  33
ALLENTOWN      CLOUDY    36  32  85 SW8       29.88R FOG     WCI  30
SCRANTON       CLOUDY    36  32  85 SW8       29.84S FOG     WCI  30
$$

CTZ002-004>006-009-010-012-RIZ004-006-007-MAZ004-011-015-041600-
SOUTHERN NEW ENGLAND
 IN CT

CITY           SKY/WX    TMP DP  RH WIND       PRES   REMARKS
BRADLEY INTL   CLOUDY    39  33  79 SW8       29.80R WCI  33
HARTFORD       CLOUDY    39  34  82 VRB5      29.82S
DANBURY        CLOUDY    37  33  85 SW9       29.84R WCI  30
WTRBRY/OXFORD  CLOUDY    37  30  75 W5        29.81R FOG     WCI  34
BRIDGEPORT     CLOUDY    34  32  92 SW9       29.84R FOG     WCI  27
MERIDEN        CLOUDY    37  35  92 CALM      29.82S FOG
NEW HAVEN      MIX PCPN  35  33  92 SW6       29.83R FOG     WCI  30
CHESTER        FAIR      37  36  93 W7        29.82R FOG     WCI  32
GROTON         CLOUDY    34  34 100 SW8       29.83R FOG     WCI  27
WILLIMANTIC    CLOUDY    39  35  86 W5        29.80R

 IN RI

CITY           SKY/WX    TMP DP  RH WIND       PRES   REMARKS
PROVIDENCE     CLOUDY    38  34  85 SW5       29.80R WCI  34
BLOCK ISLAND   PTSUNNY   36  34  93 W13       29.83R WCI  27
WESTERLY       PTSUNNY   36  34  92 SW9       29.83R FOG     WCI  29

 IN MA

CITY           SKY/WX    TMP DP  RH WIND       PRES   REMARKS
BOSTON         CLOUDY    38  33  82 SW10      29.75  WCI  31
WORCESTER      CLOUDY    36  30  79 W20G26    29.73R WCI  25
WESTFIELD      CLOUDY    40  31  70 W6        29.79R
PROVINCETOWN   CLOUDY    36  34  93 SW13      29.78R WCI  27
NANTUCKET      LGT RAIN  36  35  96 W15       29.82R FOG     WCI  27
$$

ANZ330-335-338-340-345-350-353-355-041600-
COASTAL MARINE OBSERVATIONS


STATION/POSITION TIME  SKY/WX   TEMP    WIND        PRES    VSBY  WAVE
                                AIR SEA DIR/SP/G                  HT/PER
                 (UTC)          (F)     (DEG/KT/KT) (MB)    (MI)  (FT/S)
NY HARB ENTRANCE 1500            38 38  220/ 12/ 14 1011.5          5/ 7
4S FIRE IS       1400               32                N/A           6/ 8
20S FIRE ISLAND  1400               36              1012.5          6/ 8
23SW MTP         1500                                 N/A           7/ 8
HUDSON CANYON    NOT AVBL
EXECUTION ROCKS  NOT AVBL
WESTERN LI SOUND NOT AVBL
CENTRAL LI SOUND NOT AVBL
EASTERN LI SOUND NOT AVBL
ROBBINS REEF     1500            38     240/  7/  9 1010.5
$$


>>>>>>>>>>>>>>>>>>>>>>>>>>>> KEY <<<<<<<<<<<<<<<<<<<<<<<<<<<
>                                                          <
>     SKY/WX - SKY CONDITION/PRESENT WEATHER               <
>     TMP    - TEMPERATURE IN FAHRENHEIT                   <
>     DP     - DEWPOINT IN FAHRENHEIT                      <
>     RH     - RELATIVE HUMIDITY IN PERCENT                <
>     WIND   - DIRECTION AND SPEED IN MPH                  <
>     PRES   - MEAN SEA LEVEL PRESSURE IN INCHES OF HG     <
>     WCI    - WIND CHILL INDEX                            <
>     VSB    - VISIBILITY IN MILES                         <
>     HX     - HEAT INDEX                                  <
>     TC     - TEMPERATURE IN CELSIUS                      <
>     VRB    - VARIABLE WIND DIRECTION                     <
>                                                          <
>>>>>>>>>>>>>>>>>>>>>>>>>>>> KEY <<<<<<<<<<<<<<<<<<<<<<<<<<<





USA.gov is the U.S. government's official web portal to all federal, state and local government web resources and services.